Flag for Japan Weather past 2 weeks in Fukushima, Japan

Now
77 °F

Warm.


Feels Like: 79 °F
Forecast: 68 / 94 °F
Wind: 2 mph from Northwest

Location: Wakamatsu

Current Time: Aug 2, 2014 at 1:00:49 AM

Latest Report: Aug 2, 2014 at 12:00 AM


Visibility: 13 mi

Pressure: 29.85 "Hg

Humidity: 84%

Dew point: 72 °F

Location of FukushimaLocation

Historic Weather in Fukushima — Graph

°F

Fukushima temperature yesterday

Maximum temperature yesterday: 92 °F (at 2:00 PM)
Minimum temperature yesterday: 74 °F (at 5:00 AM)
Average temperature yesterday: 83 °F

Past Weeks' High & Low Weather Summary

 TemperatureHumidityPressure
High96 °F (Jul 26, 1:00 PM)98% (Jul 18, 2:00 AM)30.04 "Hg (Jul 18, 2:00 AM)
Low62 °F (Jul 29, 5:00 AM)35% (Jul 29, 1:00 PM)29.63 "Hg (Jul 24, 5:00 AM)
Average77 °F77%29.85 "Hg
* Reported Jul 17 11:00 PM — Aug 1 11:00 PM, Fukushima, Weather by CustomWeather, © 2014

Note: Actual official high and low records may vary slightly from our data, if they occured in-between our weather recording intervals... More about our weather records

Advertising

Fukushima weather history for previous 24 hours

 ConditionsComfort  
Time TempWeatherWind HumidityBarometerVisibility
11:00 PM
Aug 1
79 °FWarm.3 mph76%29.87 "Hg12 mi
10:00 PM78 °FWarm.3 mph78%29.86 "Hg12 mi
9:00 PM80 °FWarm.3 mph74%29.85 "Hg12 mi
8:00 PM81 °FWarm.3 mph72%29.84 "Hg12 mi
7:00 PM84 °FWarm.2 mph64%29.83 "Hg12 mi
6:00 PM86 °FWarm.8 mph61%29.82 "Hg12 mi
5:00 PM90 °FHot.5 mph52%29.81 "Hg12 mi
4:00 PM91 °FHot.9 mph51%29.80 "Hg12 mi
3:00 PM90 °FHot.9 mph51%29.80 "Hg12 mi
2:00 PM92 °FHot.7 mph51%29.80 "Hg12 mi
1:00 PM90 °FHot.5 mph58%29.82 "Hg11 mi
12:00 PM88 °FWarm.6 mph61%29.83 "Hg11 mi
11:00 AM89 °FHot.6 mph59%29.85 "Hg9 mi
10:00 AM85 °FWarm.5 mph67%29.86 "Hg6 mi
9:00 AM84 °FWarm.5 mph68%29.88 "Hg7 mi
8:00 AM81 °FWarm.3 mph73%29.89 "Hg6 mi
7:00 AM79 °FWarm.2 mph79%29.90 "Hg6 mi
6:00 AM76 °FFog.No wind86%29.90 "Hg6 mi
5:00 AM74 °FFog.2 mph92%29.90 "Hg4 mi
4:00 AM76 °FFog.1 mph93%29.89 "Hg5 mi
3:00 AM76 °FMild.2 mph86%29.88 "Hg6 mi
2:00 AM77 °FMild.2 mph85%29.87 "Hg6 mi
1:00 AM77 °FWarm.3 mph86%29.88 "Hg6 mi
Weather by CustomWeather, © 2014

See weather overviewHow to use our weather pages